Location: Staunton
(38.1490°N, 79.0720°W)
Time: 03:33:49
(UTC-04:00)

X-37B - Visible Passes

Search period start: 18 September 2021 00:00
Search period end: 28 September 2021 00:00
Orbit: 381 x 393 km, 45.0° (Epoch: 29 August)

Date Brightness Start Highest point End Pass type
(mag) Time Alt. Az. Time Alt. Az. Time Alt. Az.
18 Sep 3.1 06:10:33 10° S 06:12:45 17° SE 06:14:56 10° E visible
20 Sep 1.9 05:50:37 18° SSW 05:52:26 33° SE 05:55:20 10° ENE visible
21 Sep 3.3 04:55:11 15° ESE 04:55:11 15° ESE 04:56:25 10° E visible
21 Sep 0.7 06:27:29 10° WSW 06:30:34 65° NNW 06:33:44 10° ENE visible
22 Sep 0.6 05:31:58 64° S 05:32:12 68° SSE 05:35:20 10° ENE visible
23 Sep 3.9 04:36:23 13° E 04:36:23 13° E 04:36:47 10° ENE visible
23 Sep 1.4 06:08:40 19° W 06:10:30 40° NNW 06:13:31 10° NE visible
24 Sep 1.9 05:13:02 38° NE 05:13:02 38° NE 05:15:11 10° ENE visible
25 Sep 1.9 05:49:38 25° NW 05:50:29 29° NNW 05:53:18 10° NE visible
26 Sep 3.3 04:53:55 18° NE 04:53:55 18° NE 04:54:58 10° NE visible
26 Sep 2.5 06:26:33 10° NW 06:29:07 22° N 06:31:42 10° NE visible
27 Sep 2.3 05:30:29 24° N 05:30:31 24° N 05:33:10 10° NE visible
